FW7315 Weather Reports


time (UTC)temp
F
wind
direction
speed
knots
gust
knots
rain 1hr
in
rain 24hr
in
rain mn
in
humidity
%
barometer
mb
20260906080032 82 315 0.0 1.7 0.00 0.00 0.00 69 1017.8
20260906074528 81 268 0.0 2.6 0.00 0.00 0.00 69 1017.7
20260906073044 79 309 0.0 1.7 0.00 0.00 0.00 73 1017.5
20260906071524 80 360 0.0 0.9 0.00 0.00 0.00 68 1017.4
20260906070034 79 304 0.0 1.7 0.00 0.00 0.00 69 1017.3
20260906064521 80 277 0.0 1.7 0.00 0.00 0.00 68 1017.2
20260906063021 82 171 0.0 2.6 0.00 0.00 0.00 62 1017.1
20260906061516 80 167 0.0 2.6 0.00 0.00 0.00 63 1017.0
20260906060014 77 170 0.0 2.6 0.00 0.00 0.00 66 1016.9
20260906054517 75 263 0.0 0.0 0.00 0.00 0.00 73 1016.8
20260906053012 75 259 0.0 0.0 0.00 0.00 0.00 76 1016.7
20260906051518 75 259 0.0 0.0 0.00 0.00 0.00 77 1016.6
20260906050008 74 259 0.0 0.0 0.00 0.00 0.00 75 1016.4
20260906044509 74 277 0.0 1.7 0.00 0.00 0.00 74 1016.3
20260906043007 74 290 0.0 0.9 0.00 0.00 0.00 74 1016.2
20260906041503 74 294 0.0 1.7 0.00 0.00 0.00 70 1016.1
20260906040116 74 277 0.9 3.5 0.00 0.00 0.00 68 1015.9
20260906034659 73 303 0.0 2.6 0.00 0.00 0.00 68 1015.8
20260906033057 72 309 0.9 3.5 0.00 0.00 0.00 68 1015.5
20260906031554 73 274 0.0 1.7 0.00 0.00 0.00 66 1015.6
20260906030048 77 292 1.7 6.1 0.00 0.00 0.00 60 1015.4
20260906024546 78 284 0.0 1.7 0.00 0.00 0.00 58 1015.2
20260906023101 78 296 0.0 1.7 0.00 0.00 0.00 58 1015.2
20260906021543 78 277 0.9 2.6 0.00 0.00 0.00 57 1015.1
20260906020041 78 291 0.0 1.7 0.00 0.00 0.00 57 1015.1
20260906014553 78 278 0.9 1.7 0.00 0.00 0.00 57 1015.0
20260906013039 79 271 0.0 0.9 0.00 0.00 0.00 56 1014.9
20260906011549 79 288 0.0 2.6 0.00 0.00 0.00 57 1014.9
20260906010037 79 275 0.0 1.7 0.00 0.00 0.00 56 1014.8
20260906004538 79 305 0.0 1.7 0.00 0.00 0.00 55 1014.8
20260906003034 79 279 0.0 1.7 0.00 0.00 0.00 55 1014.8
20260906001533 79 277 0.0 1.7 0.00 0.00 0.00 56 1014.8
20260906000032 80 292 0.0 0.9 0.00 0.00 0.00 56 1014.9
20260905234536 80 248 0.0 1.7 0.00 0.00 0.00 55 1014.8
20260905233031 80 281 0.0 1.7 0.00 0.00 0.00 55 1014.8
20260905231530 79 296 0.0 0.9 0.00 0.00 0.00 55 1014.8
20260905230030 80 277 0.0 0.0 0.00 0.00 0.00 55 1014.9
20260905224535 80 296 0.0 1.7 0.00 0.00 0.00 55 1014.8
20260905223033 80 292 0.0 1.7 0.00 0.00 0.00 55 1014.7
20260905221526 79 292 0.0 0.9 0.00 0.00 0.00 54 1014.6
20260905220022 80 311 0.0 0.9 0.00 0.00 0.00 55 1014.4
20260905214521 81 288 0.0 0.9 0.00 0.00 0.00 53 1014.4
20260905213019 81 287 0.0 1.7 0.00 0.00 0.00 53 1014.4
20260905211521 81 290 0.0 1.7 0.00 0.00 0.00 52 1014.2
20260905210017 82 290 0.0 1.7 0.00 0.00 0.00 50 1014.2
20260905204517 82 289 0.0 1.7 0.00 0.00 0.00 48 1014.3
20260905203017 82 288 0.0 0.9 0.00 0.00 0.00 48 1014.2
20260905201518 81 119 0.0 0.9 0.00 0.00 0.00 49 1014.2
20260905200014 82 119 0.0 0.9 0.00 0.00 0.00 49 1014.1
20260905194513 82 105 0.0 0.9 0.00 0.00 0.00 48 1014.1
20260905193012 82 99 0.0 1.7 0.00 0.00 0.00 48 1014.1
20260905191512 81 131 0.0 2.6 0.00 0.00 0.00 48 1013.9
20260905190030 81 86 0.0 3.5 0.00 0.00 0.00 48 1013.8
20260905184510 81 84 1.7 3.5 0.00 0.00 0.00 48 1013.6
20260905183014 81 92 1.7 5.2 0.00 0.00 0.00 48 1013.4
20260905181512 81 78 1.7 3.5 0.00 0.00 0.00 47 1013.3
20260905180008 81 122 1.7 3.5 0.00 0.00 0.00 46 1013.3
20260905174506 81 90 2.6 3.5 0.00 0.00 0.00 46 1013.1
20260905173006 82 125 1.7 5.2 0.00 0.00 0.00 46 1013.0
20260905171505 83 96 2.6 7.0 0.00 0.00 0.00 45 1012.9
20260905170004 84 75 2.6 5.2 0.00 0.00 0.00 45 1012.8
20260905164505 84 78 3.5 7.0 0.00 0.00 0.00 45 1012.7
20260905163008 85 70 4.3 7.8 0.00 0.00 0.00 44 1012.7
20260905161503 86 74 4.3 7.0 0.00 0.00 0.00 44 1012.5
20260905160004 86 81 4.3 9.6 0.00 0.00 0.00 44 1012.5
20260905154502 87 75 4.3 7.8 0.00 0.00 0.00 44 1012.3
20260905153000 88 75 5.2 8.7 0.00 0.00 0.00 44 1012.3
20260905151559 89 59 2.6 7.8 0.00 0.00 0.00 42 1012.4
20260905150059 90 80 1.7 7.0 0.00 0.00 0.00 41 1012.5
20260905144559 90 71 2.6 7.0 0.00 0.00 0.00 41 1012.4
20260905143057 91 115 0.0 3.5 0.00 0.00 0.00 41 1012.5
20260905141558 90 61 2.6 5.2 0.00 0.00 0.00 41 1012.6
20260905140105 90 86 1.7 8.7 0.00 0.00 0.00 42 1012.7
20260905134555 91 82 3.5 7.8 0.00 0.00 0.00 39 1012.7
20260905133058 91 132 2.6 8.7 0.00 0.00 0.00 40 1012.8
20260905131605 92 97 2.6 7.8 0.00 0.00 0.00 39 1012.8
20260905130052 92 96 0.9 3.5 0.00 0.00 0.00 38 1013.0
20260905124552 91 73 1.7 8.7 0.00 0.00 0.00 39 1012.9
20260905123050 91 132 2.6 9.6 0.00 0.00 0.00 40 1013.1
20260905121552 94 88 0.9 4.3 0.00 0.00 0.00 33 1013.3
20260905120046 93 261 1.7 7.0 0.00 0.00 0.00 33 1013.2
20260905114546 92 14 0.9 7.0 0.00 0.00 0.00 34 1013.3
20260905113045 93 331 0.9 7.0 0.00 0.00 0.00 33 1013.3
20260905111602 92 323 2.6 7.0 0.00 0.00 0.00 33 1013.4
20260905110041 91 306 1.7 7.0 0.00 0.00 0.00 34 1013.4
20260905104541 91 355 2.6 7.8 0.00 0.00 0.00 34 1013.4
20260905103041 91 342 4.3 8.7 0.00 0.00 0.00 34 1013.4
20260905101547 91 348 0.9 4.3 0.00 0.00 0.00 34 1013.7
20260905100039 91 308 2.6 7.8 0.00 0.00 0.00 33 1013.8
20260905094535 90 313 1.7 6.1 0.00 0.00 0.00 35 1013.7
20260905093036 90 11 0.9 4.3 0.00 0.00 0.00 35 1013.6
20260905091530 89 16 0.9 4.3 0.00 0.00 0.00 35 1013.6
20260905090029 88 338 0.9 3.5 0.00 0.00 0.00 34 1013.5
20260905084530 88 288 0.9 3.5 0.00 0.00 0.00 35 1013.4
20260905083026 87 279 0.9 3.5 0.00 0.00 0.00 34 1013.3
20260905081526 87 315 0.9 3.5 0.00 0.00 0.00 33 1013.3